KUIPER-00077

Last updated on Sat Aug 16 2025 00:02:06 GMT+0000 (Coordinated Universal Time)

1 64824U 25151J 25227.47027994 .00023567 00000+0 67772-3 0 9992 2 64824 51.8796 142.0492 0005453 262.0504 97.9863 15.35669794 4630
UTC large
Height (km)
Speed (km/s)
/
Latitude / Longitude
Inclination (degrees)
Orbital Period (minutes)
Azimuth
Elevation
Range (km)
Doppler Factor

Next 0 passes for location: London (51.5072 / 0.1276)

Sorry there are no passes over London.